Flag for U.S.A. Weather past 2 weeks in Manhattan, Kansas, U.S.A.

Now
78 °F

Clear.


Feels Like: 80 °F
Forecast: 72 / 92 °F
Wind: 14 mph from Southwest

Location: Manhattan Municipal Airport

Current Time: Sep 2, 2015 at 3:59:32 AM

Latest Report: Sep 2, 2015 at 2:52 AM


Visibility: 10 mi

Pressure: 29.89 "Hg

Humidity: 69%

Dew point: 67 °F

Location of ManhattanLocation

Historic Weather in Manhattan — Graph

°F

Manhattan temperature yesterday

Maximum temperature yesterday: 94 °F (at 3:52 PM)
Minimum temperature yesterday: 69 °F (at 5:52 AM)
Average temperature yesterday: 81 °F

Past Weeks' High & Low Weather Summary

 TemperatureHumidityPressure
High94 °F (Aug 31, 4:52 PM)100% (Aug 24, 1:52 AM)30.22 "Hg (Aug 24, 1:52 AM)
Low50 °F (Aug 24, 5:52 AM)27% (Aug 25, 2:52 PM)29.66 "Hg (Aug 18, 2:52 PM)
Average72 °F71%29.96 "Hg
* Reported Aug 18 2:52 AM — Sep 2 2:52 AM, Manhattan, Weather by CustomWeather, © 2015

Note: Actual official high and low records may vary slightly from our data, if they occured in-between our weather recording intervals... More about our weather records

Advertising

Manhattan weather history for previous 24 hours

 ConditionsComfort  
Time TempWeatherWind HumidityBarometerVisibility
2:52 AM
Wed, Sep 2
78 °FClear.14 mph69%29.89 "Hg10 mi
1:52 AM79 °FClear.13 mph67%29.90 "Hg10 mi
12:52 AM80 °FClear.14 mph67%29.90 "Hg10 mi
11:52 PM
Tue, Sep 1
80 °FClear.12 mph69%29.92 "Hg10 mi
10:52 PM80 °FClear.15 mph67%29.92 "Hg10 mi
9:52 PM81 °FClear.14 mph62%29.91 "Hg10 mi
8:52 PM82 °FSunny.13 mph58%29.90 "Hg10 mi
7:52 PM84 °FSunny.12 mph55%29.89 "Hg10 mi
6:52 PM88 °FSunny.8 mph43%29.89 "Hg10 mi
5:52 PM92 °FSunny.15 mph37%29.88 "Hg10 mi
3:52 PM94 °FSunny.15 mph36%29.89 "Hg10 mi
2:52 PM91 °FSunny.15 mph41%29.91 "Hg10 mi
1:52 PM93 °FSunny.17 mph41%29.91 "Hg10 mi
12:52 PM91 °FSunny.15 mph45%29.92 "Hg10 mi
11:52 AM89 °FSunny.12 mph48%29.94 "Hg10 mi
10:52 AM86 °FSunny.16 mph53%29.94 "Hg10 mi
9:52 AM82 °FSunny.16 mph58%29.94 "Hg10 mi
8:52 AM77 °FSunny.12 mph66%29.95 "Hg10 mi
7:52 AM72 °FClear.8 mph81%29.96 "Hg10 mi
6:52 AM69 °FClear.3 mph87%29.95 "Hg10 mi
5:52 AM69 °FClear.No wind87%29.93 "Hg10 mi
4:52 AM70 °FClear.No wind87%29.93 "Hg10 mi
3:52 AM71 °FClear.5 mph84%29.92 "Hg10 mi
Weather by CustomWeather, © 2015

See weather overviewHow to use our weather pages